O3B FM11 (40349 NORAD) Tracking and Keplerian Element Data

This shows tracking and keplerian element data for the satellite.

Feedback or suggestion? Click here.




ElementValue
Catalog40349
NameO3B FM11
Epoch Orbit6524
Epoch Day195.55716012
Epoch Year2018
RAAN8.1954
Inclination0.0351
Eccentricity0.0003295
Argument of Perigee107.8925
Mean Anonmoly243.9433
Mean Motion5.00115783
Decay Rate-2.4E-07
L11 40349U 14083B 18195.55716012 -.00000024 00000-0 00000-0 0 9994
L22 40349 0.0351 8.1954 0003295 107.8925 243.9433 5.00115783 65244

Live tracking and technical data element details for O3B FM11 (NORAD 40349). O3B FM11 can be tracked NOW for your location showing map with azimuth and elevation plus other details from your city location.

Track the satellite on the map from your city or location and see movement details for azimuth, elevation, latitude, longitude, range, height, and movement on the map or in text.







IsCatalogInMostPopularTable: catalog: 40349, numindb: 52
Update: records affected: 1



GetName: 40349 O3B FM11

Hit Count: updated at: Sun, 15 Jul 2018 23:19:11 GMT